Location: Haliburton Scout Reserve
(45.0900°N, 78.3200°W)
Time: 08:10:46
(UTC-04:00)

S-56A Canister/Altair - Pass Details

Date: 07 February 2023
Orbit: 639 x 2493 km, 38.9° (Epoch: 27 March)

Event Time Altitude Azimuth Distance (km) Brightness Sun altitude
Rises 10:29:04 0° 238° (WSW) 2,959 10.6 24.0°
Reaches altitude 10° 10:31:32 10° 227° (SW) 2,018 9.9 24.2°
Maximum altitude 10:35:29 32° 164° (SSE) 1,133 10.5 24.5°
Drops below altitude 10° 10:39:52 10° 102° (ESE) 2,244 10.6 24.9°
Sets 10:42:46 0° 92° (E) 3,354 11.2 25.2°
